Weather in Chrzanow

Poland     50°07′44″N   19°24′07″E
temp.,
°C
wind,
m/s
gust,
m/s
humid.,
%
clouds,
%
prec.,
mm/h
press.,
hPa
HPBL,
m
6 march, sat
sat601:00−3nw26750 0.0 1030155
04:00−4wnw23800 0.0 103086
07:00−3w25810 0.0 1031187
10:00+1wnw46590 0.0 10311373
13:00+2w465348 0.1 10301609
16:00+2w475386 0.0 10291590
19:00−1wsw236943 0.0 102960
22:00−2wsw39750 0.0 1029246
7 march, sun
sun701:00−2wsw39760 0.0 1028290
04:00−2wsw410730 0.0 1026373
07:00−1wsw511680 0.0 1025535
10:00+2w696359 0.0 10231057
13:00+4w585761 0.0 10211268
16:00+3w486586 0.0 10191059
19:000wnw258293 0.0 1019155
22:00−1wnw398294 0.0 1018516
8 march, mon
mon801:00−2w398587 0.0 1018633
04:00−2w4990100 0.1 1017619
07:00−1w4895100 1.1 1018498
10:00+1nnw3573100 0.9 1019934
13:00+2n345390 1.0 10201462
16:00+1nnw355623 0.0 10201398
19:00−3n227311 0.0 102232
22:00−3n117918 0.0 102323
9 march, tue
tue901:00−4ne01809 0.0 102323
04:00−4ene118143 0.0 102223
07:00−3ese127761 0.0 1023104
10:00+1se225934 0.1 10231045
13:00+2se125467 0.1 10221180
16:00+1se2257100 0.0 10211023
19:00−2e2473100 0.1 1022128
22:00−2ese2676100 0.0 1023245
10 march, wed
wed1001:00−3se237789 0.0 102272
04:00−2s127692 0.0 102285
07:00−2s239496 0.2 1022162
10:00+1ssw2386100 0.3 1022391
13:00+2wsw2378100 0.3 1021624
16:00+3w2478100 0.1 1021355
19:000s128795 0.1 102122
22:00−1s249187 0.0 1020110